Showing default

COSMOS 90, 1588

Orbit data source: Space-Track

COSMOS 90, 1588 is a payload satellite owned by OKB-10 (CIS) in LEO that was launched on Sat, 18 Sep 1965 UTC via a KOSMOS 65S3 launch vehicle from the Tyuratam Missile And Space Complex (TTMTR). Payload-class satellites include a variety of spacecraft equipped with specific instruments for various scientific and technological missions. These include communications satellites like Starlink; space stations such as the ISS; scientific satellites like the Hubble; Earth observation satellites from companies like Planet Labs, Umbra, and HawkEye 360; GPS; miniature CubeSats for education and research; and military/defense satellites.

Loading next visibility...
Identifier
1588, 1965-073E
Orbit
LEO
Country
Flag of CISCIS
Related business
Manufacturer
OKB-10
Mission
Spacecraft
Bus & Motor
STRELA-1 11F610, Unknown motor
Mass
50 kg wet, 50 kg dry
Launch date (UTC)
1965-09-18 (61 years ago)
Launch vehicle
KOSMOS 65S3
Launch site
Tyuratam Missile And Space Complex (TTMTR)
Object type
Payload
Rocket body
Debris
Shape & HBR
Unknown
Radar Cross Section
Medium (>0.1 m² and <1 m²)

Expand to show TLE details & history
Last TLE update: 9 hours ago

TLE from 9 hours ago
0 COSMOS 90
1  1588U 65073E   26177.61527483 -.00000076  00000-0  12720-3 0  9991
2  1588  56.0547 247.3495 0156924  91.3116  55.7764 12.34592794740150
Epoch: 2026-06-26T14:45Z
TLE epoch observation values (Epoch: 2026-06-26T14:45:59.745Z)
Latitude
25.67437°
Longitude
-87.67387°
Altitude
1,462.457 km
Speed
7.165 km/s
True Right ascension
03h 14m 15s
True Declination
25° 33' 09"
Sunlit
Object was in daylight at epoch
Visualization orbit readout
Latitude
Unknown
Longitude
Unknown
Altitude
Unknown
Speed
Unknown
Apparent Right ascension
Unknown
Apparent Declination
Unknown
Sunlit
N/A
Visualization observer readout
Local Sidereal Time
10:59:56
Azimuth
Unknown
Elevation
Unknown
Doppler factor
Unknown
Orbital elements
Apogee altitude
1,653.522 km
Perigee altitude
1,405.345 km
Semi-major axis
7,907.57 km
Eccentricity
0.01569
Inclination
56.0547°
RAAN
247.3495°
Arg. of periapsis
91.3116°
True anomaly
57.27966°
Mean anomaly
55.7764°
Eccentric anomaly
56.52638°
Mean motion
3.08659 °/min
Orbital period
116.63 mins
BSTAR
0.0001272
Loading maneuver chart data...
Computing Atmospheric mass density...
Loading historical data...
Loading historical data...
Loading historical data...
Loading historical data...
Loading historical data...
Loading historical data...
Loading historical data...

Documentation

Showing up to 5 results
|